Location: Newark
(50.1395°N, 5.5234°W)
Time: 13:33:11
(UTC+00:00)

X-37B - Visible Passes

Search period start: 08 March 2021 00:00
Search period end: 18 March 2021 00:00
Orbit: 383 x 391 km, 45.0° (Epoch: 27 February)

Date Brightness Start Highest point End Pass type
(mag) Time Alt. Az. Time Alt. Az. Time Alt. Az.
12 Mar 2.7 19:53:55 10° SSW 19:55:23 15° S 19:55:23 15° S visible
13 Mar 3.0 18:56:56 10° SSE 18:57:52 11° SSE 18:58:49 10° SE visible
13 Mar 2.8 20:31:03 10° SW 20:32:17 18° SSW 20:32:17 18° SSW visible
14 Mar 2.2 19:33:06 10° SW 19:35:38 21° SSE 19:36:45 18° SE visible
14 Mar 3.7 21:08:53 10° WSW 21:09:03 11° WSW 21:09:03 11° WSW visible
15 Mar 1.7 20:10:41 10° WSW 20:13:28 31° S 20:13:28 31° S visible
16 Mar 2.0 19:12:34 10° SW 19:15:20 27° SSE 19:17:49 12° ESE visible
16 Mar 2.7 20:48:40 10° WSW 20:50:06 21° SW 20:50:06 21° SW visible
17 Mar 1.7 19:50:23 10° WSW 19:53:19 32° S 19:54:25 25° SE visible
